[[{"header":{"parameterUnit":"m.s-1","parameterCategory":1,"la1":30.2991,"la2":30.254,"lo1":-89.0895,"lo2":-89.0444,"dy":0.0017,"dx":0.0017,"nx":28,"ny":28,"refTime":"2023-10-06T03:00:00:Z","depth":0,"parameterNumber":2,"parameterNumberName":"U-component_of_WINDS"},"data":[0,0,0,0,0,0,0,0,0,0,0,0,0,0,0,0,0,0,0,0,0,0,0,0,0,0,0,0,0,0,0,0,0,0,0,0,0,0,0,0,0,0,0,0,0,0,0,0,0,0,0,0,0,0,0,0,0,0,-0.8714,-0.8715,0,-0.8839,-0.8841,-0.8842,-0.89,-0.89,-0.89,-0.89,-0.9028,-0.9032,-0.9035,0,0,0,0,0,0,0,0,0,0,0,0,0,-0.8526,-0.853,-0.8714,-0.8715,-0.8717,-0.8839,-0.8841,-0.8843,-0.89,-0.89,-0.89,-0.8899,-0.9027,-0.9032,-0.9036,0,0,0,0,0,0,0,0,0,0,0,0,0,-0.8625,-0.8531,-0.8714,-0.876,-0.8766,-0.8839,-0.8841,-0.8843,-0.89,-0.89,-0.89,-0.8899,-0.9026,-0.9031,-0.9036,-0.9072,0,0,-0.9053,-0.9055,0,0,0,0,0,0,0,0,-0.862,-0.8632,-0.8752,-0.8757,-0.8763,-0.8854,-0.8822,-0.892,-0.89,-0.8849,-0.89,-0.8899,-0.8971,-0.898,-0.9004,-0.9078,-0.9084,-0.9053,-0.9056,-0.9059,-0.906,0,0,0,0,0,0,0,-0.8613,-0.8627,-0.8764,-0.8754,-0.8761,-0.8776,-0.879,-0.8841,-0.8909,-0.8853,-0.8858,-0.8872,-0.8974,-0.8999,-0.9008,-0.9086,-0.9053,-0.9058,-0.9061,-0.9063,-0.9198,-0.9199,0,0,0,0,0,0,-0.8598,-0.8621,-0.876,-0.8767,-0.869,-0.8779,-0.8795,-0.8825,-0.8909,-0.8921,-0.8872,-0.8874,-0.899,-0.9001,-0.9012,-0.9061,-0.9058,-0.9063,-0.9066,-0.9198,-0.9198,-0.9199,0,0,0,0,0,0,-0.8594,-0.861,-0.8754,-0.8696,-0.8715,-0.8783,-0.8816,-0.8827,-0.8853,-0.8923,-0.8935,-0.8885,-0.899,-0.9005,-0.9058,-0.9067,-0.9066,-0.9071,-0.9197,-0.9198,-0.9199,-0.9159,0,0,0,0,0,0,-0.8588,-0.8608,-0.8622,-0.8695,-0.8718,-0.8796,-0.8817,-0.883,-0.8862,-0.8866,-0.8938,-0.895,-0.8991,-0.9049,-0.9063,-0.9074,-0.9075,-0.9197,-0.9198,-0.9199,-0.9159,-0.9158,-0.9156,0,0,0,0,0,-0.8581,-0.8605,-0.8622,-0.8638,-0.8736,-0.8797,-0.881,-0.8856,-0.8862,-0.8877,-0.8923,-0.8948,-0.9064,-0.9054,-0.907,-0.9083,-0.9197,-0.9198,-0.9198,-0.916,-0.9158,-0.9156,0,0,0,0,0,0,-0.853,-0.8615,-0.8635,-0.8683,-0.8733,-0.8806,-0.8826,-0.8853,-0.8901,-0.8903,-0.8959,-0.8975,-0.9023,-0.9058,-0.9046,-0.9123,-0.9133,-0.9137,-0.9098,-0.9097,-0.9095,-0.9085,-0.9079,0,0,0,0,0,-0.8525,-0.8566,-0.8639,-0.8674,-0.8698,-0.8758,-0.8786,-0.8818,-0.8871,-0.8892,-0.8941,-0.8992,-0.904,-0.9071,-0.9119,-0.9165,-0.9183,-0.9182,-0.9181,-0.9179,-0.9182,-0.9211,-0.9212,-0.9202,-0.9202,-0.9202,0,0,-0.8514,-0.8565,-0.8588,-0.8665,-0.8707,-0.875,-0.8775,-0.8818,-0.8851,-0.8899,-0.8951,-0.8989,-0.905,-0.91,-0.9125,-0.9131,-0.9189,-0.918,-0.9178,-0.9182,-0.9212,-0.9213,-0.9213,-0.9203,-0.9203,-0.9202,0,0,-0.8515,-0.8558,-0.8593,-0.8635,-0.8698,-0.8738,-0.8746,-0.8817,-0.8844,-0.8898,-0.8935,-0.8975,-0.9056,-0.9099,-0.9131,-0.9151,-0.9176,-0.9165,-0.9157,-0.9184,-0.9185,-0.9186,-0.9194,-0.9196,-0.9167,-0.9167,-0.9167,0,-0.8493,-0.8558,-0.8607,-0.865,-0.8683,-0.8729,-0.8766,-0.8804,-0.8879,-0.8902,-0.8908,-0.9013,-0.9057,-0.9118,-0.9123,-0.9147,-0.916,-0.9156,-0.9181,-0.9182,-0.9184,-0.9192,-0.9195,-0.9166,-0.9166,-0.9166,-0.9166,0,-0.8528,-0.8573,-0.8594,-0.8666,-0.8702,-0.8741,-0.8798,-0.8829,-0.8858,-0.8897,-0.8953,-0.9008,-0.9068,-0.9086,-0.9114,-0.9152,-0.9154,-0.917,-0.918,-0.9182,-0.9191,-0.9194,-0.9163,-0.9164,-0.9164,-0.9165,0,0,-0.85,-0.86,-0.8607,-0.8641,-0.8715,-0.8751,-0.8793,-0.8852,-0.8878,-0.8929,-0.8967,-0.9035,-0.9051,-0.9088,-0.9122,-0.9146,-0.916,-0.916,-0.9162,-0.9158,-0.9206,-0.9193,-0.9196,-0.9178,-0.9178,-0.9179,-0.9201,0,-0.8511,-0.8588,-0.8635,-0.8692,-0.8735,-0.8781,-0.8817,-0.8867,-0.8906,-0.8949,-0.8992,-0.904,-0.9057,-0.908,-0.9106,-0.9152,-0.917,-0.9152,-0.9213,-0.9215,-0.9196,-0.92,-0.9187,-0.9204,-0.9204,-0.9205,-0.9205,0,-0.8535,-0.8585,-0.8647,-0.8718,-0.8738,-0.877,-0.8829,-0.8869,-0.8927,-0.8954,-0.8996,-0.9031,-0.9078,-0.9086,-0.9152,-0.9139,-0.9167,-0.9194,-0.9196,-0.9204,-0.921,-0.9208,-0.9211,-0.9213,-0.9211,-0.9211,-0.921,0,-0.8508,-0.8592,-0.864,-0.8668,-0.8751,-0.8773,-0.8809,-0.8867,-0.8901,-0.8953,-0.8975,-0.9032,-0.9064,-0.9107,-0.9158,-0.9158,-0.922,-0.9231,-0.9244,-0.9243,-0.9254,-0.9253,-0.9262,-0.9273,-0.9273,-0.9273,-0.9273,0,-0.8516,-0.8552,-0.8629,-0.8659,-0.8702,-0.8756,-0.8797,-0.8837,-0.8889,-0.8928,-0.8971,-0.9007,-0.9071,-0.9115,-0.9155,-0.9205,-0.9219,-0.9242,-0.9252,-0.9238,-0.9235,-0.9257,-0.9257,-0.9273,-0.9273,-0.9273,-0.9273,0,-0.8493,-0.8546,-0.8602,-0.8677,-0.8697,-0.8725,-0.879,-0.8821,-0.8863,-0.8912,-0.8927,-0.8993,-0.9047,-0.9102,-0.9175,-0.9202,-0.9251,-0.9265,-0.9231,-0.9237,-0.9247,-0.9245,-0.9271,-0.9277,-0.9283,-0.9283,-0.9283,0,-0.8494,-0.8524,-0.8602,-0.8631,-0.8666,-0.8713,-0.8747,-0.8803,-0.8837,-0.8907,-0.893,-0.8988,-0.9037,-0.9122,-0.9177,-0.9234,-0.925,-0.9255,-0.9258,-0.9244,-0.925,-0.9248,-0.9251,-0.9252,-0.9252,-0.9252,-0.9252,0,-0.8492,-0.8517,-0.8565,-0.8622,-0.8662,-0.871,-0.876,-0.8781,-0.8847,-0.8883,-0.894,-0.8978,-0.9053,-0.9111,-0.9174,-0.9213,-0.9244,-0.925,-0.9257,-0.9242,-0.9222,-0.9233,-0.9226,-0.9249,-0.9249,-0.925,-0.925,-0.925,-0.8482,-0.851,-0.857,-0.8622,-0.8666,-0.8711,-0.8745,-0.8791,-0.8839,-0.8904,-0.8935,-0.8992,-0.9052,-0.914,-0.9178,-0.9225,-0.9233,-0.9241,-0.9244,-0.9245,-0.9242,-0.9215,-0.9236,-0.9237,-0.9237,-0.9237,-0.9237,0,-0.8481,-0.8523,-0.857,-0.8638,-0.868,-0.8705,-0.8762,-0.8795,-0.8845,-0.8898,-0.8946,-0.9011,-0.9068,-0.9127,-0.9188,-0.9213,-0.9229,-0.9227,-0.9226,-0.9234,-0.9231,-0.922,-0.9213,-0.9213,-0.9213,-0.9213,-0.9213,-0.9213,-0.8486,-0.8536,-0.8568,-0.8641,-0.8682,-0.8738,-0.8768,-0.8811,-0.8854,-0.8925,-0.8972,-0.9011,-0.9068,-0.9133,-0.9186,-0.9202,-0.9223,-0.9217,-0.9237,-0.9233,-0.9234,-0.9236,-0.9226,-0.9221,-0.9221,-0.9237,-0.9237,-0.9237]},{"header":{"parameterUnit":"m.s-1","parameterCategory":1,"la1":30.2991,"la2":30.254,"lo1":-89.0895,"lo2":-89.0444,"dy":0.0017,"dx":0.0017,"nx":28,"ny":28,"refTime":"2023-10-06T03:00:00:Z","depth":0,"parameterNumber":3,"parameterNumberName":"V-component_of_WINDS"},"data":[0,0,0,0,0,0,0,0,0,0,0,0,0,0,0,0,0,0,0,0,0,0,0,0,0,0,0,0,0,0,0,0,0,0,0,0,0,0,0,0,0,0,0,0,0,0,0,0,0,0,0,0,0,0,0,0,0,0,2.2054,2.2054,0,2.2064,2.2064,2.2064,2.2028,2.2027,2.2026,2.2025,2.2034,2.2035,2.2036,0,0,0,0,0,0,0,0,0,0,0,0,0,2.2001,2.2003,2.2054,2.2054,2.2054,2.2064,2.2064,2.2064,2.2028,2.2027,2.2026,2.2024,2.2033,2.2035,2.2036,0,0,0,0,0,0,0,0,0,0,0,0,0,2.2019,2.2003,2.2054,2.2037,2.2036,2.2064,2.2064,2.2064,2.2028,2.2027,2.2025,2.2024,2.2033,2.2035,2.2036,2.208,0,0,2.2042,2.2043,0,0,0,0,0,0,0,0,2.2018,2.2021,2.204,2.2038,2.2037,2.2043,2.2049,2.207,2.2029,2.2031,2.2025,2.2023,2.2038,2.2039,2.2045,2.2081,2.2081,2.2042,2.2043,2.2044,2.2045,0,0,0,0,0,0,0,2.2017,2.202,2.2058,2.204,2.2038,2.2029,2.203,2.2053,2.2044,2.2031,2.2028,2.203,2.2037,2.2043,2.2045,2.2081,2.2042,2.2044,2.2045,2.2046,2.2154,2.2156,0,0,0,0,0,0,2.2018,2.202,2.2057,2.2058,2.2023,2.2031,2.2032,2.2043,2.2043,2.2042,2.2031,2.2028,2.2041,2.2043,2.2045,2.2096,2.2044,2.2046,2.2047,2.2152,2.2154,2.2156,0,0,0,0,0,0,2.2017,2.2022,2.2057,2.2038,2.2042,2.2034,2.2046,2.2044,2.205,2.2044,2.2042,2.2039,2.2039,2.2042,2.2072,2.2096,2.2047,2.2048,2.215,2.2153,2.2155,2.2199,0,0,0,0,0,0,2.2016,2.2022,2.2039,2.2039,2.2043,2.2084,2.2048,2.2045,2.2053,2.2049,2.2051,2.2049,2.2038,2.2069,2.2074,2.2098,2.205,2.2148,2.2151,2.2155,2.2196,2.2203,2.221,0,0,0,0,0,2.2014,2.205,2.204,2.2044,2.2064,2.2086,2.2088,2.2076,2.2056,2.2072,2.2068,2.2049,2.2093,2.2073,2.2077,2.2102,2.2146,2.215,2.2154,2.2193,2.2202,2.2209,0,0,0,0,0,0,2.2052,2.205,2.2038,2.2076,2.2081,2.208,2.21,2.2086,2.2097,2.2092,2.2076,2.2076,2.2109,2.2109,2.2086,2.2145,2.2116,2.2121,2.2144,2.2152,2.2159,2.2158,2.2051,0,0,0,0,0,2.2065,2.2083,2.208,2.2113,2.2117,2.2109,2.2117,2.2107,2.2112,2.2114,2.2112,2.2118,2.2132,2.2142,2.2156,2.2196,2.2195,2.2215,2.2222,2.2228,2.2232,2.2253,2.2262,2.2169,2.2169,2.2169,0,0,2.2091,2.2092,2.2105,2.2121,2.2124,2.2143,2.2111,2.2132,2.2146,2.2117,2.2145,2.2144,2.2149,2.2184,2.2199,2.2185,2.2258,2.2233,2.2238,2.2239,2.2258,2.2267,2.2275,2.2172,2.2171,2.2171,0,0,2.2149,2.2152,2.218,2.2184,2.219,2.2184,2.2191,2.2192,2.219,2.2219,2.2198,2.2214,2.224,2.2244,2.2249,2.231,2.2293,2.2315,2.235,2.2371,2.2378,2.2385,2.2406,2.2413,2.2319,2.2319,2.2319,0,2.2181,2.2209,2.2196,2.2219,2.2227,2.2203,2.2231,2.2236,2.2245,2.2251,2.2235,2.2267,2.2268,2.2304,2.2319,2.2325,2.2331,2.2314,2.2379,2.2385,2.239,2.241,2.2418,2.2322,2.2322,2.2321,2.2321,0,2.2247,2.2267,2.2289,2.23,2.231,2.2336,2.2326,2.2338,2.2328,2.2323,2.2352,2.2353,2.2367,2.2374,2.2364,2.2409,2.24,2.2381,2.2352,2.2402,2.242,2.2428,2.2326,2.2325,2.2324,2.2323,0,0,2.2328,2.2332,2.234,2.2345,2.235,2.2365,2.2389,2.2403,2.2413,2.2421,2.244,2.2464,2.2447,2.2453,2.2443,2.2462,2.2509,2.2441,2.2441,2.2453,2.2558,2.2571,2.258,2.2498,2.25,2.2501,2.2557,0,2.2384,2.2426,2.2416,2.2457,2.2476,2.2454,2.2475,2.248,2.2478,2.2492,2.2488,2.2505,2.2482,2.2486,2.2503,2.25,2.253,2.2495,2.2515,2.2516,2.2514,2.259,2.2603,2.2657,2.2564,2.2566,2.2566,0,2.2455,2.2466,2.251,2.2512,2.252,2.2539,2.2551,2.2565,2.2571,2.2567,2.2575,2.2562,2.2585,2.2557,2.2589,2.2566,2.2574,2.2573,2.2575,2.2575,2.2544,2.2591,2.2673,2.2681,2.2578,2.2577,2.2576,0,2.2508,2.2534,2.2564,2.2569,2.2573,2.2587,2.2589,2.2593,2.2602,2.2612,2.2618,2.2631,2.2638,2.2648,2.2638,2.2618,2.2671,2.2642,2.2668,2.2669,2.268,2.2679,2.2763,2.2686,2.2686,2.2686,2.2686,0,2.2571,2.2599,2.2588,2.2606,2.2636,2.2624,2.2654,2.2654,2.2658,2.2675,2.2657,2.2674,2.266,2.2676,2.2668,2.2696,2.2699,2.2696,2.2694,2.2697,2.2698,2.2701,2.2697,2.2688,2.2688,2.2687,2.2687,0,2.2636,2.263,2.2661,2.2662,2.2663,2.2685,2.2686,2.2703,2.2699,2.2721,2.2726,2.272,2.2737,2.2728,2.2746,2.2741,2.2776,2.2769,2.2775,2.2772,2.2799,2.2797,2.2888,2.2899,2.2816,2.2817,2.2817,0,2.2676,2.2697,2.2701,2.2712,2.2716,2.2733,2.2742,2.2731,2.2742,2.275,2.2766,2.2781,2.2793,2.2822,2.2818,2.2832,2.2824,2.2856,2.2826,2.2829,2.2824,2.2823,2.2824,2.2861,2.2862,2.2863,2.2863,0,2.2748,2.2744,2.2759,2.2773,2.2785,2.2795,2.2804,2.2813,2.2803,2.2815,2.2833,2.2842,2.2861,2.2876,2.2888,2.289,2.2875,2.2873,2.288,2.2883,2.2885,2.2884,2.279,2.2871,2.287,2.2869,2.2869,2.2869,2.2801,2.2819,2.2825,2.2842,2.2847,2.2856,2.2872,2.287,2.2885,2.29,2.2892,2.2913,2.2918,2.2932,2.2936,2.2952,2.2939,2.2949,2.2951,2.2954,2.2957,2.2884,2.2954,2.2954,2.2953,2.2953,2.2953,0,2.2872,2.2875,2.2891,2.2904,2.2917,2.2903,2.2912,2.2924,2.2943,2.2949,2.2961,2.2982,2.2997,2.2996,2.3009,2.3022,2.3016,2.3026,2.3025,2.3025,2.2968,2.296,2.3031,2.3031,2.3031,2.3031,2.3031,2.3031,2.291,2.2939,2.2936,2.2968,2.297,2.2991,2.2997,2.3005,2.301,2.3034,2.3047,2.3046,2.3049,2.3063,2.3077,2.3076,2.3081,2.3094,2.3091,2.3037,2.3029,2.3022,2.3015,2.3096,2.3096,2.3147,2.3147,2.3148]}]]